CSN147 ZBTJ-RJCK

Flight info

Callsign CSN147
Flight time N/A
Altitude 351
Route MUGLO W34 ANRAT A326 DONVO G597 AGAVO/N0453F350 Y644 EGOBA G597 KAE B467 TENAS L512 KAMSA Z171 NOMAS Z17 MRE Y13 SMELT
Aircraft A321/M-SDE2E3GHIJ3J4J5LM1ORWXY/LB1D1

Departure

Time N/A
Airport Tianjin Binhai International Airport (ZBTJ)

Arrival

Time 2026-05-04 14:47
Airport Kushiro Airport (RJCK)
Time Latitude Longitude Altitude Speed Heading
2026-05-04 14:33 42.71414 143.39400 15867 ft 459 kts 45°
2026-05-04 14:33 42.73546 143.42605 15111 ft 455 kts 45°
2026-05-04 14:33 42.75653 143.45781 14357 ft 446 kts 45°
2026-05-04 14:33 42.77694 143.48863 13631 ft 431 kts 45°
2026-05-04 14:34 42.79668 143.51842 12859 ft 418 kts 45°
2026-05-04 14:34 42.81589 143.54737 12008 ft 407 kts 45°
2026-05-04 14:34 42.83334 143.57745 10969 ft 405 kts 57°
2026-05-04 14:34 42.84502 143.61211 9987 ft 403 kts 72°
2026-05-04 14:35 42.84999 143.64938 8970 ft 399 kts 87°
2026-05-04 14:35 42.84880 143.68691 7914 ft 394 kts 95°
2026-05-04 14:35 42.84657 143.72399 6881 ft 390 kts 94°
2026-05-04 14:35 42.84441 143.76053 5881 ft 384 kts 93°
2026-05-04 14:36 42.84231 143.79617 5205 ft 368 kts 90°
2026-05-04 14:36 42.84031 143.82960 4740 ft 348 kts 92°
2026-05-04 14:36 42.83839 143.86118 4603 ft 322 kts 92°
2026-05-04 14:36 42.83658 143.89040 4470 ft 298 kts 92°
2026-05-04 14:37 42.83491 143.91751 4342 ft 277 kts 91°
2026-05-04 14:37 42.83335 143.94280 4201 ft 259 kts 89°
2026-05-04 14:37 42.83189 143.96678 4057 ft 243 kts 87°
2026-05-04 14:37 42.83058 143.98867 3922 ft 228 kts 87°
2026-05-04 14:38 42.82934 144.01000 3790 ft 224 kts 87°
2026-05-04 14:38 42.82810 144.03130 3682 ft 221 kts 88°
2026-05-04 14:38 42.82688 144.05183 3610 ft 220 kts 89°
2026-05-04 14:38 42.82564 144.07238 3589 ft 212 kts 89°
2026-05-04 14:39 42.82443 144.09206 3588 ft 206 kts 89°
2026-05-04 14:39 42.82327 144.11153 3591 ft 206 kts 89°
2026-05-04 14:39 42.82276 144.13093 3594 ft 203 kts 80°
2026-05-04 14:40 42.83002 144.16702 3462 ft 193 kts 57°
2026-05-04 14:40 42.83658 144.18272 3360 ft 189 kts 54°
2026-05-04 14:40 42.84314 144.19831 3252 ft 189 kts 53°
2026-05-04 14:40 42.84967 144.21386 2894 ft 187 kts 52°
2026-05-04 14:41 42.85603 144.22904 2497 ft 182 kts 52°
2026-05-04 14:41 42.86224 144.24390 2098 ft 179 kts 52°
2026-05-04 14:41 42.87659 144.26861 1903 ft 159 kts 22°
2026-05-04 14:42 42.89409 144.26985 1878 ft 156 kts 342°
2026-05-04 14:42 42.90757 144.26274 1878 ft 155 kts 341°
2026-05-04 14:42 42.91743 144.25759 1877 ft 150 kts 341°
2026-05-04 14:43 42.92711 144.25256 1874 ft 148 kts 341°
2026-05-04 14:43 42.93332 144.24932 1869 ft 135 kts 341°
2026-05-04 14:43 42.94391 144.24376 1862 ft 114 kts 342°
2026-05-04 14:43 42.94875 144.24124 1864 ft 111 kts 341°
2026-05-04 14:44 42.95581 144.23756 1869 ft 107 kts 341°
2026-05-04 14:44 42.96276 144.23393 1703 ft 107 kts 342°
2026-05-04 14:44 42.97212 144.22905 1487 ft 110 kts 341°
2026-05-04 14:44 42.97692 144.22655 1383 ft 112 kts 341°
2026-05-04 14:45 42.98421 144.22275 1227 ft 112 kts 342°
2026-05-04 14:45 42.99158 144.21890 1074 ft 117 kts 342°
2026-05-04 14:45 42.99937 144.21483 920 ft 124 kts 342°
2026-05-04 14:45 43.01033 144.20914 783 ft 128 kts 342°
2026-05-04 14:46 43.01595 144.20611 716 ft 129 kts 341°
2026-05-04 14:46 43.02434 144.20158 531 ft 130 kts 343°
2026-05-04 14:46 43.03269 144.19724 377 ft 128 kts 341°
2026-05-04 14:46 43.04033 144.19340 335 ft 103 kts 339°
2026-05-04 14:47 43.04523 144.19087 333 ft 50 kts 339°
2026-05-04 14:47 43.04684 144.18998 332 ft 1 kts 339°
2026-05-04 14:47 43.04715 144.18981 332 ft 10 kts 338°
2026-05-04 14:47 43.04774 144.18984 335 ft 8 kts 50°
2026-05-04 14:48 43.04792 144.19039 333 ft 6 kts 68°
2026-05-04 14:48 43.04809 144.19100 332 ft 7 kts 69°
2026-05-04 14:48 43.04807 144.19158 331 ft 6 kts 122°
2026-05-04 14:48 43.04778 144.19183 334 ft 4 kts 158°
2026-05-04 14:49 43.04753 144.19196 333 ft 3 kts 158°
2026-05-04 14:49 43.04730 144.19209 333 ft 4 kts 158°
2026-05-04 14:49 43.04701 144.19224 333 ft 5 kts 159°
2026-05-04 14:49 43.04657 144.19247 332 ft 7 kts 159°
2026-05-04 14:50 43.04616 144.19269 331 ft 6 kts 159°
2026-05-04 14:50 43.04579 144.19288 332 ft 5 kts 159°
2026-05-04 14:50 43.04547 144.19305 334 ft 6 kts 159°
2026-05-04 14:50 43.04513 144.19345 334 ft 6 kts 92°
2026-05-04 14:51 43.04530 144.19413 330 ft 8 kts 69°
2026-05-04 14:51 43.04552 144.19490 333 ft 3 kts 69°
2026-05-04 14:51 43.04556 144.19505 333 ft 0 kts 69°